Location: San Martino di Castrozza
(46.2667°N, 11.8000°E)
Time: 01:52:27
(UTC+00:00)

USA 305 - Pass Details

Date: 23 April 2021
Orbit: 567 x 573 km, 54.0° (Epoch: 07 May)

Event Time Altitude Azimuth Distance (km) Brightness Sun altitude
Rises 02:38:43 0° 302° (WNW) 2,780 6.2 -15.0°
Reaches altitude 10° 02:41:02 10° 307° (NW) 1,881 5.4 -14.7°
Maximum altitude 02:45:13 52° 25° (NNE) 713 3.7 -14.1°
Drops below altitude 10° 02:49:24 10° 103° (ESE) 1,877 6.1 -13.5°
Sets 02:51:42 0° 108° (ESE) 2,773 7.0 -13.2°
